Flag for Saudi Arabia Weather past 2 weeks in Medina, Saudi Arabia

Now
95 °F

Clear.


Feels Like: 90 °F
Forecast: 74 / 104 °F
Wind: 14 mph from Southwest

Location: Madinah

Current Time: Jul 25, 2014 at 9:35:55 PM

Latest Report: Jul 25, 2014 at 9:00 PM


Visibility: 10 mi

Pressure: 29.83 "Hg

Humidity: 13%

Dew point: 37 °F

Location of MedinaLocation

Historic Weather in Medina — Graph

°F

Medina temperature yesterday

Maximum temperature yesterday: 104 °F (at 3:00 PM)
Minimum temperature yesterday: 81 °F (at 6:00 AM)
Average temperature yesterday: 94 °F

Past Weeks' High & Low Weather Summary

 TemperatureHumidityPressure
High109 °F (Jul 11, 2:00 PM)26% (Jul 13, 5:00 AM)29.92 "Hg (Jul 13, 5:00 AM)
Low81 °F (Jul 24, 6:00 AM)1% (Jul 16, 2:00 PM)29.71 "Hg (Jul 14, 5:00 PM)
Average97 °F9%29.82 "Hg
* Reported Jul 10 8:00 PM — Jul 25 8:00 PM, Medina, Weather by CustomWeather, © 2014

Note: Actual official high and low records may vary slightly from our data, if they occured in-between our weather recording intervals... More about our weather records

Advertising

Medina weather history for previous 24 hours

 ConditionsComfort  
Time TempWeatherWind HumidityBarometerVisibility
8:00 PM
Jul 25
97 °FClear.14 mph13%29.80 "Hg10 mi
7:00 PM99 °FSunny.14 mph10%29.77 "Hg10 mi
6:00 PM99 °FSunny.9 mph10%29.77 "Hg10 mi
5:00 PM102 °FSunny.25 mph9%29.77 "Hg10 mi
4:00 PM102 °FClear.30 mph8%29.77 "Hg6 mi
3:00 PM102 °FSunny.23 mph7%29.77 "Hg10 mi
2:00 PM100 °FSunny.20 mph8%29.80 "Hg10 mi
1:00 PM99 °FSunny.18 mph10%29.83 "Hg10 mi
12:00 PM99 °FSunny.18 mph10%29.83 "Hg10 mi
11:00 AM97 °FSunny.13 mph11%29.86 "Hg10 mi
10:00 AM93 °FSunny.14 mph13%29.86 "Hg10 mi
9:00 AM91 °FSunny.12 mph14%29.86 "Hg10 mi
8:00 AM91 °FSunny.12 mph14%29.83 "Hg10 mi
7:00 AM90 °FSunny.9 mph13%29.83 "Hg10 mi
6:00 AM88 °FSunny.9 mph15%29.83 "Hg10 mi
5:00 AM90 °FClear.12 mph15%29.80 "Hg10 mi
4:00 AM90 °FClear.7 mph15%29.80 "Hg10 mi
3:00 AM91 °FClear.9 mph14%29.80 "Hg10 mi
2:00 AM91 °FClear.9 mph14%29.80 "Hg10 mi
1:00 AM91 °FClear.6 mph14%29.80 "Hg10 mi
12:00 AM93 °FClear.6 mph13%29.83 "Hg10 mi
11:00 PM
Jul 24
93 °FClear.7 mph13%29.83 "Hg10 mi
10:00 PM95 °FClear.7 mph12%29.83 "Hg10 mi
9:00 PM97 °FClear.12 mph11%29.80 "Hg10 mi
Weather by CustomWeather, © 2014

See weather overviewHow to use our weather pages